Simultaneous Nadir Overpasses (SNOs) Predictions

Prediction of SNOs between GOES-16 and METOP-B Satellite Orbit:

Table of predicted SNOs for the next 14.0 days since TLE Epoch: 6/8/2024
Index Date Time (GOES-16) GOES-16 Lat,Lon METOP-B Lat,Lon Distance(km) Time Diff (sec)
1 06/09/2024 14:32:02 0.06, -75.21 0.60, -77.71 284.63 80
2 06/10/2024 14:13:59 0.05, -75.21 -0.53, -72.71 285.95 80
3 06/12/2024 02:30:14 -0.05, -75.22 -0.50, -77.30 235.77 80
4 06/13/2024 02:12:12 -0.05, -75.24 0.63, -72.30 335.43 80
5 06/14/2024 14:28:18 0.04, -75.26 0.37, -76.85 181.22 80
6 06/15/2024 14:10:15 0.04, -75.27 -0.71, -71.84 390.46 80
7 06/17/2024 02:26:30 -0.04, -75.29 -0.29, -76.43 129.79 80
8 06/18/2024 02:08:27 -0.04, -75.31 0.80, -71.42 442.10 80
9 06/19/2024 14:24:33 0.04, -75.34 0.20, -75.98 73.84 80
10 06/20/2024 14:06:30 0.03, -75.35 -0.96, -70.99 498.09 80
11 06/22/2024 02:25:25 -0.03, -75.38 -0.08, -75.57 21.83 80
